CZ-3B DEB, 39337

Orbit data source: Space-Track

CZ-3B DEB, 39337 is space debris in HEO originally from a launch on Sat, 04 Sep 2010 UTC launched from the Xichang Space Center, China (XSC). Debris objects in space refer to the collection of defunct objects orbiting the Earth. Examples of debris include non-operational satellites, rocket bodies, and fragments generated from explosions, collisions, or faulty payload assembly.

Loading next visibility...
Identifier
39337, 2010-042J
Orbit
HEO
Country
Flag of CNCN / PRC
Related business
Manufacturer
CALT
Mission
Spacecraft
Bus & Motor
Unknown
Mass
Unknown
Launch date (UTC)
2010-09-04 (16 years ago)
Launch vehicle
Unknown
Launch site
Xichang Space Center, China (XSC)
Object type
Payload
Rocket body
Debris
Shape & HBR
Unknown shape, 0.3 m
Radar Cross Section
Medium (>0.1 m² and <1 m²)

Expand to show TLE details & history
Last TLE update: 18 hours ago

TLE from 18 hours ago
0 CZ-3B DEB
1 39337U 10042J   26072.12606143  .00000038  00000-0  33041-2 0  9996
2 39337  24.2330 141.7019 7516242 249.3356  20.9392  1.84207748 80939
Epoch: 2026-03-13T03:01Z
TLE epoch observation values (Epoch: 2026-03-13T03:01:31.707Z)
Latitude
-0.00003°
Longitude
-74.2782°
Altitude
10,332.525 km
Speed
5.79 km/s
True Right ascension
09h 27m 28s
True Declination
0° 00' 00"
Sunlit
Object was in daylight at epoch
Visualization orbit readout
Latitude
Unknown
Longitude
Unknown
Altitude
Unknown
Speed
Unknown
Apparent Right ascension
Unknown
Apparent Declination
Unknown
Sunlit
N/A
Visualization observer readout
Local Sidereal Time
01:47:33
Azimuth
Unknown
Elevation
Unknown
Doppler factor
Unknown
Orbital elements
Apogee altitude
42,867.469 km
Perigee altitude
604.763 km
Semi-major axis
28,114.253 km
Eccentricity
0.75162
Inclination
24.233°
RAAN
141.7019°
Arg. of periapsis
249.3356°
True anomaly
110.62106°
Mean anomaly
20.9392°
Eccentric anomaly
57.09551°
Mean motion
0.46042 °/min
Orbital period
781.9 mins
BSTAR
0.0033041
Loading maneuver chart data...
Computing Atmospheric mass density...
Loading historical data...
Loading historical data...
Loading historical data...
Loading historical data...
Loading historical data...
Loading historical data...
Loading historical data...

Documentation

Showing up to 5 results
|